Showing default

HULIANWANG DIGUI-111, 66921

Orbit data source: Space-Track

HULIANWANG DIGUI-111, 66921 is a payload satellite owned by Zhongguo Xingwang (CN) in LEO that was launched on Sat, 06 Dec 2025 UTC via a CHANG ZHENG 8A launch vehicle from the Wenchang Satellite Launch Center (WSC). Payload-class satellites include a variety of spacecraft equipped with specific instruments for various scientific and technological missions. These include communications satellites like Starlink; space stations such as the ISS; scientific satellites like the Hubble; Earth observation satellites from companies like Planet Labs, Umbra, and HawkEye 360; GPS; miniature CubeSats for education and research; and military/defense satellites.

Loading next visibility...
Identifier
66921, 2025-285G
Orbit
LEO
Country
Flag of CNCN / PRC
Related business
Manufacturer
CAST
Mission
Operational Civil Communications
Bus & Motor
XINGWANG C, Unknown motor
Mass
~700 kg wet, ~700 kg dry
Launch date (UTC)
2025-12-06 (6 months ago)
Launch vehicle
CHANG ZHENG 8A
Launch site
Wenchang Satellite Launch Center (WSC)
Object type
Payload
Rocket body
Debris
Shape & HBR
Box + 2 Pan, 14.5 m
Radar Cross Section
5.935 m², Large (>1 m²)

Expand to show TLE details & history
Last TLE update: 17 hours ago

TLE from 17 hours ago
0 HULIANWANG DIGUI-111
1 66921U 25285G   26171.20823606 -.00000139  00000-0 -33233-4 0  9993
2 66921  50.0121 135.0591 0001094 305.3779  54.6991 13.29324404 26461
Epoch: 2026-06-20T04:59Z
TLE epoch observation values (Epoch: 2026-06-20T04:59:51.595Z)
Latitude
-0.00002°
Longitude
151.66795°
Altitude
1,149.344 km
Speed
7.28 km/s
True Right ascension
09h 00m 14s
True Declination
0° 00' 00"
Sunlit
Object was in daylight at epoch
Visualization orbit readout
Latitude
Unknown
Longitude
Unknown
Altitude
Unknown
Speed
Unknown
Apparent Right ascension
Unknown
Apparent Declination
Unknown
Sunlit
N/A
Visualization observer readout
Local Sidereal Time
08:33:19
Azimuth
Unknown
Elevation
Unknown
Doppler factor
Unknown
Orbital elements
Apogee altitude
1,150.84 km
Perigee altitude
1,149.193 km
Semi-major axis
7,528.153 km
Eccentricity
0.00011
Inclination
50.0121°
RAAN
135.0591°
Arg. of periapsis
305.3779°
True anomaly
54.70933°
Mean anomaly
54.6991°
Eccentric anomaly
54.70422°
Mean motion
3.32285 °/min
Orbital period
108.34 mins
BSTAR
-0.000033233
Loading maneuver chart data...
Computing Atmospheric mass density...
Loading historical data...
Loading historical data...
Loading historical data...
Loading historical data...
Loading historical data...
Loading historical data...
Loading historical data...

Documentation

Showing up to 5 results
|